owner,sensor,date,latitude,longitude,vertical_datum,wind_speed,wind_to_direction,wind_speed_of_gust,qcFlag 
NOS,ioos:station:wmo:bzst2:1,2017-06-01T00:00:00Z,26.0670,-97.1550,15.0,7.2,139.0,7.9,'11111222,11111222,11111222' 
NOS,ioos:station:wmo:bzst2:1,2017-06-01T00:06:00Z,26.0670,-97.1550,15.0,7.1,137.0,8.6,'11111222,11111222,11111222' 
NOS,ioos:station:wmo:bzst2:1,2017-06-01T00:12:00Z,26.0670,-97.1550,15.0,7.5,136.0,8.5,'11111222,11111222,11111222' 
NOS,ioos:station:wmo:bzst2:1,2017-06-01T00:18:00Z,26.0670,-97.1550,15.0,6.9,138.0,7.9,'11111222,11111222,11111222' 
NOS,ioos:station:wmo:bzst2:1,2017-06-01T00:24:00Z,26.0670,-97.1550,15.0,6.8,140.0,7.5,'11111222,11111222,11111222' 
NOS,ioos:station:wmo:bzst2:1,2017-06-01T00:30:00Z,26.0670,-97.1550,15.0,7.2,135.0,8.5,'11111222,11111222,11111222' 
NOS,ioos:station:wmo:bzst2:1,2017-06-01T00:36:00Z,26.0670,-97.1550,15.0,7.6,138.0,9.4,'11111222,11111222,11111222' 
NOS,ioos:station:wmo:bzst2:1,2017-06-01T00:42:00Z,26.0670,-97.1550,15.0,7.1,134.0,8.8,'11111222,11111222,11111222' 
NOS,ioos:station:wmo:bzst2:1,2017-06-01T00:48:00Z,26.0670,-97.1550,15.0,7.1,138.0,8.5,'11111222,11111222,11111222' 
NOS,ioos:station:wmo:bzst2:1,2017-06-01T00:54:00Z,26.0670,-97.1550,15.0,7.5,140.0,8.8,'11111222,11111222,11111222' 
NOS,ioos:station:wmo:bzst2:1,2017-06-01T01:00:00Z,26.0670,-97.1550,15.0,8.8,150.0,9.6,'11111222,11111222,11111222' 
NOS,ioos:station:wmo:bzst2:1,2017-06-01T01:06:00Z,26.0670,-97.1550,15.0,7.9,149.0,9.1,'11111222,11111222,11111222' 
NOS,ioos:station:wmo:bzst2:1,2017-06-01T01:12:00Z,26.0670,-97.1550,15.0,8.2,143.0,9.8,'11111222,11111222,11111222' 
NOS,ioos:station:wmo:bzst2:1,2017-06-01T01:18:00Z,26.0670,-97.1550,15.0,7.6,148.0,9.0,'11111222,11111222,11111222' 
NOS,ioos:station:wmo:bzst2:1,2017-06-01T01:24:00Z,26.0670,-97.1550,15.0,7.9,140.0,9.2,'11111222,11111222,11111222' 
NOS,ioos:station:wmo:bzst2:1,2017-06-01T01:30:00Z,26.0670,-97.1550,15.0,6.9,142.0,8.5,'11111222,11111222,11111222' 
NOS,ioos:station:wmo:bzst2:1,2017-06-01T01:36:00Z,26.0670,-97.1550,15.0,7.2,151.0,8.2,'11111222,11111222,11111222' 
NOS,ioos:station:wmo:bzst2:1,2017-06-01T01:42:00Z,26.0670,-97.1550,15.0,7.6,147.0,9.0,'11111222,11111222,11111222' 
NOS,ioos:station:wmo:bzst2:1,2017-06-01T01:48:00Z,26.0670,-97.1550,15.0,7.5,143.0,9.1,'11111222,11111222,11111222' 
NOS,ioos:station:wmo:bzst2:1,2017-06-01T01:54:00Z,26.0670,-97.1550,15.0,7.1,144.0,8.2,'11111222,11111222,11111222' 
NOS,ioos:station:wmo:bzst2:1,2017-06-01T02:00:00Z,26.0670,-97.1550,15.0,7.3,144.0,8.1,'11111222,11111222,11111222' 
NOS,ioos:station:wmo:bzst2:1,2017-06-01T02:06:00Z,26.0670,-97.1550,15.0,7.5,145.0,8.3,'11111222,11111222,11111222' 
NOS,ioos:station:wmo:bzst2:1,2017-06-01T02:12:00Z,26.0670,-97.1550,15.0,6.3,149.0,7.8,'11111222,11111222,11111222' 
NOS,ioos:station:wmo:bzst2:1,2017-06-01T02:18:00Z,26.0670,-97.1550,15.0,7.3,138.0,8.2,'11111222,11111222,11111222' 
NOS,ioos:station:wmo:bzst2:1,2017-06-01T02:24:00Z,26.0670,-97.1550,15.0,7.0,139.0,8.6,'11111222,11111222,11111222' 
NOS,ioos:station:wmo:bzst2:1,2017-06-01T02:30:00Z,26.0670,-97.1550,15.0,6.8,135.0,8.3,'11111222,11111222,11111222' 
NOS,ioos:station:wmo:bzst2:1,2017-06-01T02:36:00Z,26.0670,-97.1550,15.0,7.3,143.0,8.3,'11111222,11111222,11111222' 
NOS,ioos:station:wmo:bzst2:1,2017-06-01T02:42:00Z,26.0670,-97.1550,15.0,7.5,144.0,8.4,'11111222,11111222,11111222' 
NOS,ioos:station:wmo:bzst2:1,2017-06-01T02:48:00Z,26.0670,-97.1550,15.0,6.8,151.0,8.9,'11111222,11111222,11111222' 
NOS,ioos:station:wmo:bzst2:1,2017-06-01T02:54:00Z,26.0670,-97.1550,15.0,7.1,148.0,8.0,'11111222,11111222,11111222' 
NOS,ioos:station:wmo:bzst2:1,2017-06-01T03:00:00Z,26.0670,-97.1550,15.0,6.0,143.0,7.6,'11111222,11111222,11111222' 
NOS,ioos:station:wmo:bzst2:1,2017-06-01T03:06:00Z,26.0670,-97.1550,15.0,5.7,153.0,7.3,'11111222,11111222,11111222' 
NOS,ioos:station:wmo:bzst2:1,2017-06-01T03:12:00Z,26.0670,-97.1550,15.0,6.8,140.0,7.5,'11111222,11111222,11111222' 
NOS,ioos:station:wmo:bzst2:1,2017-06-01T03:18:00Z,26.0670,-97.1550,15.0,6.1,138.0,7.9,'11111222,11111222,11111222' 
NOS,ioos:station:wmo:bzst2:1,2017-06-01T03:24:00Z,26.0670,-97.1550,15.0,6.2,151.0,7.1,'11111222,11111222,11111222' 
NOS,ioos:station:wmo:bzst2:1,2017-06-01T03:30:00Z,26.0670,-97.1550,15.0,6.2,162.0,7.1,'11111222,11111222,11111222' 
NOS,ioos:station:wmo:bzst2:1,2017-06-01T03:36:00Z,26.0670,-97.1550,15.0,6.4,165.0,8.0,'11111222,11111222,11111222' 
NOS,ioos:station:wmo:bzst2:1,2017-06-01T03:42:00Z,26.0670,-97.1550,15.0,6.0,170.0,7.5,'11111222,11111222,11111222' 
NOS,ioos:station:wmo:bzst2:1,2017-06-01T03:48:00Z,26.0670,-97.1550,15.0,5.0,165.0,7.0,'11111222,11111222,11111222' 
NOS,ioos:station:wmo:bzst2:1,2017-06-01T03:54:00Z,26.0670,-97.1550,15.0,5.6,165.0,6.5,'11111222,11111222,11111222' 
NOS,ioos:station:wmo:bzst2:1,2017-06-01T04:00:00Z,26.0670,-97.1550,15.0,5.3,160.0,7.1,'11111222,11111222,11111222' 
NOS,ioos:station:wmo:bzst2:1,2017-06-01T04:06:00Z,26.0670,-97.1550,15.0,5.4,165.0,6.8,'11111222,11111222,11111222' 
NOS,ioos:station:wmo:bzst2:1,2017-06-01T04:12:00Z,26.0670,-97.1550,15.0,5.3,166.0,6.5,'11111222,11111222,11111222' 
NOS,ioos:station:wmo:bzst2:1,2017-06-01T04:18:00Z,26.0670,-97.1550,15.0,5.7,162.0,6.6,'11111222,11111222,11111222' 
NOS,ioos:station:wmo:bzst2:1,2017-06-01T04:24:00Z,26.0670,-97.1550,15.0,4.8,166.0,6.7,'11111222,11111222,11111222' 
NOS,ioos:station:wmo:bzst2:1,2017-06-01T04:30:00Z,26.0670,-97.1550,15.0,5.5,160.0,6.2,'11111222,11111222,11111222' 
NOS,ioos:station:wmo:bzst2:1,2017-06-01T04:36:00Z,26.0670,-97.1550,15.0,4.6,163.0,6.1,'11111222,11111222,11111222' 
NOS,ioos:station:wmo:bzst2:1,2017-06-01T04:42:00Z,26.0670,-97.1550,15.0,5.4,157.0,6.1,'11111222,11111222,11111222' 
NOS,ioos:station:wmo:bzst2:1,2017-06-01T04:48:00Z,26.0670,-97.1550,15.0,5.6,169.0,6.3,'11111222,11111222,11111222' 
NOS,ioos:station:wmo:bzst2:1,2017-06-01T04:54:00Z,26.0670,-97.1550,15.0,5.1,173.0,6.5,'11111222,11111222,11111222' 
NOS,ioos:station:wmo:bzst2:1,2017-06-01T05:00:00Z,26.0670,-97.1550,15.0,4.2,177.0,6.2,'11111222,11111222,11111222' 
NOS,ioos:station:wmo:bzst2:1,2017-06-01T05:06:00Z,26.0670,-97.1550,15.0,5.1,166.0,6.2,'11111222,11111222,11111222' 
NOS,ioos:station:wmo:bzst2:1,2017-06-01T05:12:00Z,26.0670,-97.1550,15.0,5.8,171.0,6.4,'11111222,11111222,11111222' 
NOS,ioos:station:wmo:bzst2:1,2017-06-01T05:18:00Z,26.0670,-97.1550,15.0,4.1,172.0,5.9,'11111222,11111222,11111222' 
NOS,ioos:station:wmo:bzst2:1,2017-06-01T05:24:00Z,26.0670,-97.1550,15.0,4.2,167.0,5.3,'11111222,11111222,11111222' 
NOS,ioos:station:wmo:bzst2:1,2017-06-01T05:30:00Z,26.0670,-97.1550,15.0,3.5,184.0,5.1,'11111222,11111222,11111222' 
NOS,ioos:station:wmo:bzst2:1,2017-06-01T05:36:00Z,26.0670,-97.1550,15.0,3.3,185.0,4.1,'11111222,11111222,11111222' 
NOS,ioos:station:wmo:bzst2:1,2017-06-01T05:42:00Z,26.0670,-97.1550,15.0,3.2,181.0,3.8,'11111222,11111222,11111222' 
NOS,ioos:station:wmo:bzst2:1,2017-06-01T05:48:00Z,26.0670,-97.1550,15.0,3.7,184.0,4.4,'11111222,11111222,11111222' 
NOS,ioos:station:wmo:bzst2:1,2017-06-01T05:54:00Z,26.0670,-97.1550,15.0,3.5,180.0,4.5,'11111222,11111222,11111222' 
NOS,ioos:station:wmo:bzst2:1,2017-06-01T06:00:00Z,26.0670,-97.1550,15.0,2.9,193.0,3.7,'11111222,11111222,11111222' 
NOS,ioos:station:wmo:bzst2:1,2017-06-01T06:06:00Z,26.0670,-97.1550,15.0,3.1,185.0,4.4,'11111222,11111222,11111222' 
NOS,ioos:station:wmo:bzst2:1,2017-06-01T06:12:00Z,26.0670,-97.1550,15.0,2.7,193.0,3.2,'11111222,11111222,11111222' 
NOS,ioos:station:wmo:bzst2:1,2017-06-01T06:18:00Z,26.0670,-97.1550,15.0,2.4,178.0,3.1,'11111222,11111222,11111222' 
NOS,ioos:station:wmo:bzst2:1,2017-06-01T06:24:00Z,26.0670,-97.1550,15.0,4.0,154.0,4.6,'11111222,11111222,11111222' 
NOS,ioos:station:wmo:bzst2:1,2017-06-01T06:30:00Z,26.0670,-97.1550,15.0,4.8,147.0,5.6,'11111222,11111222,11111222' 
NOS,ioos:station:wmo:bzst2:1,2017-06-01T06:36:00Z,26.0670,-97.1550,15.0,5.4,140.0,6.0,'11111222,11111222,11111222' 
NOS,ioos:station:wmo:bzst2:1,2017-06-01T06:42:00Z,26.0670,-97.1550,15.0,5.8,149.0,6.6,'11111222,11111222,11111222' 
NOS,ioos:station:wmo:bzst2:1,2017-06-01T06:48:00Z,26.0670,-97.1550,15.0,5.4,152.0,7.1,'11111222,11111222,11111222' 
NOS,ioos:station:wmo:bzst2:1,2017-06-01T06:54:00Z,26.0670,-97.1550,15.0,5.2,158.0,6.2,'11111222,11111222,11111222' 
NOS,ioos:station:wmo:bzst2:1,2017-06-01T07:00:00Z,26.0670,-97.1550,15.0,5.6,145.0,6.4,'11111222,11111222,11111222' 
NOS,ioos:station:wmo:bzst2:1,2017-06-01T07:06:00Z,26.0670,-97.1550,15.0,5.9,147.0,6.8,'11111222,11111222,11111222' 
NOS,ioos:station:wmo:bzst2:1,2017-06-01T07:12:00Z,26.0670,-97.1550,15.0,6.3,148.0,7.2,'11111222,11111222,11111222' 
NOS,ioos:station:wmo:bzst2:1,2017-06-01T07:18:00Z,26.0670,-97.1550,15.0,5.9,150.0,6.8,'11111222,11111222,11111222' 
NOS,ioos:station:wmo:bzst2:1,2017-06-01T07:24:00Z,26.0670,-97.1550,15.0,5.9,150.0,6.8,'11111222,11111222,11111222' 
NOS,ioos:station:wmo:bzst2:1,2017-06-01T07:30:00Z,26.0670,-97.1550,15.0,5.6,150.0,6.5,'11111222,11111222,11111222' 
NOS,ioos:station:wmo:bzst2:1,2017-06-01T07:36:00Z,26.0670,-97.1550,15.0,5.8,151.0,6.8,'11111222,11111222,11111222' 
NOS,ioos:station:wmo:bzst2:1,2017-06-01T07:42:00Z,26.0670,-97.1550,15.0,6.2,150.0,7.4,'11111222,11111222,11111222' 
NOS,ioos:station:wmo:bzst2:1,2017-06-01T07:48:00Z,26.0670,-97.1550,15.0,5.7,151.0,6.8,'11111222,11111222,11111222' 
NOS,ioos:station:wmo:bzst2:1,2017-06-01T07:54:00Z,26.0670,-97.1550,15.0,5.4,147.0,6.5,'11111222,11111222,11111222' 
NOS,ioos:station:wmo:bzst2:1,2017-06-01T08:00:00Z,26.0670,-97.1550,15.0,5.5,152.0,6.4,'11111222,11111222,11111222' 
NOS,ioos:station:wmo:bzst2:1,2017-06-01T08:06:00Z,26.0670,-97.1550,15.0,5.0,140.0,6.1,'11111222,11111222,11111222' 
NOS,ioos:station:wmo:bzst2:1,2017-06-01T08:12:00Z,26.0670,-97.1550,15.0,4.8,148.0,5.5,'11111222,11111222,11111222' 
NOS,ioos:station:wmo:bzst2:1,2017-06-01T08:18:00Z,26.0670,-97.1550,15.0,4.5,139.0,5.0,'11111222,11111222,11111222' 
NOS,ioos:station:wmo:bzst2:1,2017-06-01T08:24:00Z,26.0670,-97.1550,15.0,4.1,137.0,5.2,'11111222,11111222,11111222' 
NOS,ioos:station:wmo:bzst2:1,2017-06-01T08:30:00Z,26.0670,-97.1550,15.0,4.1,141.0,4.8,'11111222,11111222,11111222' 
NOS,ioos:station:wmo:bzst2:1,2017-06-01T08:36:00Z,26.0670,-97.1550,15.0,4.9,135.0,5.7,'11111222,11111222,11111222' 
NOS,ioos:station:wmo:bzst2:1,2017-06-01T08:42:00Z,26.0670,-97.1550,15.0,5.2,137.0,5.9,'11111222,11111222,11111222' 
NOS,ioos:station:wmo:bzst2:1,2017-06-01T08:48:00Z,26.0670,-97.1550,15.0,5.1,141.0,6.2,'11111222,11111222,11111222' 
NOS,ioos:station:wmo:bzst2:1,2017-06-01T08:54:00Z,26.0670,-97.1550,15.0,5.3,144.0,6.0,'11111222,11111222,11111222' 
NOS,ioos:station:wmo:bzst2:1,2017-06-01T09:00:00Z,26.0670,-97.1550,15.0,6.2,154.0,7.3,'11111222,11111222,11111222' 
NOS,ioos:station:wmo:bzst2:1,2017-06-01T09:06:00Z,26.0670,-97.1550,15.0,5.9,140.0,6.9,'11111222,11111222,11111222' 
NOS,ioos:station:wmo:bzst2:1,2017-06-01T09:12:00Z,26.0670,-97.1550,15.0,3.8,156.0,5.8,'11111222,11111222,11111222' 
NOS,ioos:station:wmo:bzst2:1,2017-06-01T09:18:00Z,26.0670,-97.1550,15.0,5.1,149.0,5.8,'11111222,11111222,11111222' 
NOS,ioos:station:wmo:bzst2:1,2017-06-01T09:24:00Z,26.0670,-97.1550,15.0,4.5,150.0,5.3,'11111222,11111222,11111222' 
NOS,ioos:station:wmo:bzst2:1,2017-06-01T09:30:00Z,26.0670,-97.1550,15.0,5.4,142.0,6.8,'11111222,11111222,11111222' 
NOS,ioos:station:wmo:bzst2:1,2017-06-01T09:36:00Z,26.0670,-97.1550,15.0,6.7,134.0,8.2,'11111222,11111222,11111222' 
NOS,ioos:station:wmo:bzst2:1,2017-06-01T09:42:00Z,26.0670,-97.1550,15.0,8.1,139.0,9.3,'11111222,11111222,11111222' 
NOS,ioos:station:wmo:bzst2:1,2017-06-01T09:48:00Z,26.0670,-97.1550,15.0,9.0,140.0,9.7,'11111222,11111222,11111222' 
NOS,ioos:station:wmo:bzst2:1,2017-06-01T09:54:00Z,26.0670,-97.1550,15.0,8.4,132.0,10.0,'11111222,11111222,11111222' 
NOS,ioos:station:wmo:bzst2:1,2017-06-01T10:00:00Z,26.0670,-97.1550,15.0,9.0,124.0,10.1,'11111222,11111222,11111222' 
NOS,ioos:station:wmo:bzst2:1,2017-06-01T10:06:00Z,26.0670,-97.1550,15.0,8.5,123.0,9.7,'11111222,11111222,11111222' 
NOS,ioos:station:wmo:bzst2:1,2017-06-01T10:12:00Z,26.0670,-97.1550,15.0,8.3,118.0,9.8,'11111222,11111222,11111222' 
NOS,ioos:station:wmo:bzst2:1,2017-06-01T10:18:00Z,26.0670,-97.1550,15.0,8.6,130.0,10.4,'11111222,11111222,11111222' 
NOS,ioos:station:wmo:bzst2:1,2017-06-01T10:24:00Z,26.0670,-97.1550,15.0,8.7,131.0,9.4,'11111222,11111222,11111222' 
NOS,ioos:station:wmo:bzst2:1,2017-06-01T10:30:00Z,26.0670,-97.1550,15.0,8.1,131.0,9.3,'11111222,11111222,11111222' 
NOS,ioos:station:wmo:bzst2:1,2017-06-01T10:36:00Z,26.0670,-97.1550,15.0,8.6,133.0,9.3,'11111222,11111222,11111222' 
NOS,ioos:station:wmo:bzst2:1,2017-06-01T10:42:00Z,26.0670,-97.1550,15.0,7.4,127.0,8.7,'11111222,11111222,11111222' 
NOS,ioos:station:wmo:bzst2:1,2017-06-01T10:48:00Z,26.0670,-97.1550,15.0,8.2,133.0,8.9,'11111222,11111222,11111222' 
NOS,ioos:station:wmo:bzst2:1,2017-06-01T10:54:00Z,26.0670,-97.1550,15.0,7.3,124.0,9.0,'11111222,11111222,11111222' 
NOS,ioos:station:wmo:bzst2:1,2017-06-01T11:00:00Z,26.0670,-97.1550,15.0,7.7,131.0,8.2,'11111222,11111222,11111222' 
NOS,ioos:station:wmo:bzst2:1,2017-06-01T11:06:00Z,26.0670,-97.1550,15.0,8.1,131.0,9.4,'11111222,11111222,11111222' 
NOS,ioos:station:wmo:bzst2:1,2017-06-01T11:12:00Z,26.0670,-97.1550,15.0,8.1,137.0,9.1,'11111222,11111222,11111222' 
NOS,ioos:station:wmo:bzst2:1,2017-06-01T11:18:00Z,26.0670,-97.1550,15.0,8.3,134.0,9.3,'11111222,11111222,11111222' 
NOS,ioos:station:wmo:bzst2:1,2017-06-01T11:24:00Z,26.0670,-97.1550,15.0,8.4,134.0,9.4,'11111222,11111222,11111222' 
NOS,ioos:station:wmo:bzst2:1,2017-06-01T11:30:00Z,26.0670,-97.1550,15.0,8.7,132.0,9.4,'11111222,11111222,11111222' 
NOS,ioos:station:wmo:bzst2:1,2017-06-01T11:36:00Z,26.0670,-97.1550,15.0,8.2,131.0,9.1,'11111222,11111222,11111222' 
NOS,ioos:station:wmo:bzst2:1,2017-06-01T11:42:00Z,26.0670,-97.1550,15.0,7.6,137.0,8.9,'11111222,11111222,11111222' 
NOS,ioos:station:wmo:bzst2:1,2017-06-01T11:48:00Z,26.0670,-97.1550,15.0,7.8,138.0,8.9,'11111222,11111222,11111222' 
NOS,ioos:station:wmo:bzst2:1,2017-06-01T11:54:00Z,26.0670,-97.1550,15.0,8.1,139.0,8.9,'11111222,11111222,11111222' 
NOS,ioos:station:wmo:bzst2:1,2017-06-01T12:00:00Z,26.0670,-97.1550,15.0,7.2,138.0,8.8,'11111222,11111222,11111222' 
NOS,ioos:station:wmo:bzst2:1,2017-06-01T12:06:00Z,26.0670,-97.1550,15.0,7.1,138.0,8.1,'11111222,11111222,11111222' 
NOS,ioos:station:wmo:bzst2:1,2017-06-01T12:12:00Z,26.0670,-97.1550,15.0,7.0,135.0,8.5,'11111222,11111222,11111222' 
NOS,ioos:station:wmo:bzst2:1,2017-06-01T12:18:00Z,26.0670,-97.1550,15.0,7.5,139.0,8.0,'11111222,11111222,11111222' 
NOS,ioos:station:wmo:bzst2:1,2017-06-01T12:24:00Z,26.0670,-97.1550,15.0,6.3,142.0,8.1,'11111222,11111222,11111222' 
NOS,ioos:station:wmo:bzst2:1,2017-06-01T12:30:00Z,26.0670,-97.1550,15.0,6.2,144.0,7.9,'11111222,11111222,11111222' 
NOS,ioos:station:wmo:bzst2:1,2017-06-01T12:36:00Z,26.0670,-97.1550,15.0,6.6,141.0,7.9,'11111222,11111222,11111222' 
NOS,ioos:station:wmo:bzst2:1,2017-06-01T12:42:00Z,26.0670,-97.1550,15.0,6.7,140.0,7.7,'11111222,11111222,11111222' 
NOS,ioos:station:wmo:bzst2:1,2017-06-01T12:48:00Z,26.0670,-97.1550,15.0,6.4,141.0,7.3,'11111222,11111222,11111222' 
NOS,ioos:station:wmo:bzst2:1,2017-06-01T12:54:00Z,26.0670,-97.1550,15.0,6.5,143.0,7.3,'11111222,11111222,11111222' 
NOS,ioos:station:wmo:bzst2:1,2017-06-01T13:00:00Z,26.0670,-97.1550,15.0,6.3,142.0,7.1,'11111222,11111222,11111222' 
NOS,ioos:station:wmo:bzst2:1,2017-06-01T13:06:00Z,26.0670,-97.1550,15.0,7.0,135.0,7.7,'11111222,11111222,11111222' 
NOS,ioos:station:wmo:bzst2:1,2017-06-01T13:12:00Z,26.0670,-97.1550,15.0,6.4,139.0,7.1,'11111222,11111222,11111222' 
NOS,ioos:station:wmo:bzst2:1,2017-06-01T13:18:00Z,26.0670,-97.1550,15.0,6.3,141.0,7.3,'11111222,11111222,11111222' 
NOS,ioos:station:wmo:bzst2:1,2017-06-01T13:24:00Z,26.0670,-97.1550,15.0,6.7,143.0,7.4,'11111222,11111222,11111222' 
NOS,ioos:station:wmo:bzst2:1,2017-06-01T13:30:00Z,26.0670,-97.1550,15.0,6.6,133.0,7.4,'11111222,11111222,11111222' 
NOS,ioos:station:wmo:bzst2:1,2017-06-01T13:36:00Z,26.0670,-97.1550,15.0,5.9,149.0,7.0,'11111222,11111222,11111222' 
NOS,ioos:station:wmo:bzst2:1,2017-06-01T13:42:00Z,26.0670,-97.1550,15.0,6.3,142.0,7.1,'11111222,11111222,11111222' 
NOS,ioos:station:wmo:bzst2:1,2017-06-01T13:48:00Z,26.0670,-97.1550,15.0,6.5,143.0,7.2,'11111222,11111222,11111222' 
NOS,ioos:station:wmo:bzst2:1,2017-06-01T13:54:00Z,26.0670,-97.1550,15.0,6.1,144.0,7.0,'11111222,11111222,11111222' 
NOS,ioos:station:wmo:bzst2:1,2017-06-01T14:00:00Z,26.0670,-97.1550,15.0,5.9,144.0,7.0,'11111222,11111222,11111222' 
NOS,ioos:station:wmo:bzst2:1,2017-06-01T14:06:00Z,26.0670,-97.1550,15.0,6.3,143.0,6.9,'11111222,11111222,11111222' 
NOS,ioos:station:wmo:bzst2:1,2017-06-01T14:12:00Z,26.0670,-97.1550,15.0,6.3,151.0,7.0,'11111222,11111222,11111222' 
NOS,ioos:station:wmo:bzst2:1,2017-06-01T14:18:00Z,26.0670,-97.1550,15.0,5.6,148.0,6.7,'11111222,11111222,11111222' 
NOS,ioos:station:wmo:bzst2:1,2017-06-01T14:24:00Z,26.0670,-97.1550,15.0,5.3,148.0,6.2,'11111222,11111222,11111222' 
NOS,ioos:station:wmo:bzst2:1,2017-06-01T14:30:00Z,26.0670,-97.1550,15.0,5.2,140.0,6.0,'11111222,11111222,11111222' 
NOS,ioos:station:wmo:bzst2:1,2017-06-01T14:36:00Z,26.0670,-97.1550,15.0,5.7,139.0,6.5,'11111222,11111222,11111222' 
NOS,ioos:station:wmo:bzst2:1,2017-06-01T14:42:00Z,26.0670,-97.1550,15.0,5.4,140.0,6.2,'11111222,11111222,11111222' 
NOS,ioos:station:wmo:bzst2:1,2017-06-01T14:48:00Z,26.0670,-97.1550,15.0,5.4,139.0,5.9,'11111222,11111222,11111222' 
NOS,ioos:station:wmo:bzst2:1,2017-06-01T14:54:00Z,26.0670,-97.1550,15.0,5.0,144.0,5.6,'11111222,11111222,11111222' 
NOS,ioos:station:wmo:bzst2:1,2017-06-01T15:00:00Z,26.0670,-97.1550,15.0,5.5,133.0,6.5,'11111222,11111222,11111222' 
NOS,ioos:station:wmo:bzst2:1,2017-06-01T15:06:00Z,26.0670,-97.1550,15.0,4.9,136.0,5.9,'11111222,11111222,11111222' 
NOS,ioos:station:wmo:bzst2:1,2017-06-01T15:12:00Z,26.0670,-97.1550,15.0,5.9,137.0,6.6,'11111222,11111222,11111222' 
NOS,ioos:station:wmo:bzst2:1,2017-06-01T15:18:00Z,26.0670,-97.1550,15.0,5.7,147.0,6.4,'11111222,11111222,11111222' 
NOS,ioos:station:wmo:bzst2:1,2017-06-01T15:24:00Z,26.0670,-97.1550,15.0,6.5,138.0,7.0,'11111222,11111222,11111222' 
NOS,ioos:station:wmo:bzst2:1,2017-06-01T15:30:00Z,26.0670,-97.1550,15.0,6.3,143.0,7.2,'11111222,11111222,11111222' 
NOS,ioos:station:wmo:bzst2:1,2017-06-01T15:36:00Z,26.0670,-97.1550,15.0,5.9,144.0,7.0,'11111222,11111222,11111222' 
NOS,ioos:station:wmo:bzst2:1,2017-06-01T15:42:00Z,26.0670,-97.1550,15.0,5.1,145.0,6.4,'11111222,11111222,11111222' 
NOS,ioos:station:wmo:bzst2:1,2017-06-01T15:48:00Z,26.0670,-97.1550,15.0,5.7,141.0,6.2,'11111222,11111222,11111222' 
NOS,ioos:station:wmo:bzst2:1,2017-06-01T15:54:00Z,26.0670,-97.1550,15.0,5.8,142.0,6.1,'11111222,11111222,11111222' 
NOS,ioos:station:wmo:bzst2:1,2017-06-01T16:00:00Z,26.0670,-97.1550,15.0,6.0,140.0,6.7,'11111222,11111222,11111222' 
NOS,ioos:station:wmo:bzst2:1,2017-06-01T16:06:00Z,26.0670,-97.1550,15.0,5.8,142.0,6.9,'11111222,11111222,11111222' 
NOS,ioos:station:wmo:bzst2:1,2017-06-01T16:12:00Z,26.0670,-97.1550,15.0,5.8,148.0,6.8,'11111222,11111222,11111222' 
NOS,ioos:station:wmo:bzst2:1,2017-06-01T16:18:00Z,26.0670,-97.1550,15.0,5.7,148.0,6.5,'11111222,11111222,11111222' 
NOS,ioos:station:wmo:bzst2:1,2017-06-01T16:24:00Z,26.0670,-97.1550,15.0,5.5,151.0,6.6,'11111222,11111222,11111222' 
NOS,ioos:station:wmo:bzst2:1,2017-06-01T16:30:00Z,26.0670,-97.1550,15.0,5.5,152.0,6.1,'11111222,11111222,11111222' 
NOS,ioos:station:wmo:bzst2:1,2017-06-01T16:36:00Z,26.0670,-97.1550,15.0,5.5,147.0,6.5,'11111222,11111222,11111222' 
NOS,ioos:station:wmo:bzst2:1,2017-06-01T16:42:00Z,26.0670,-97.1550,15.0,5.6,151.0,6.7,'11111222,11111222,11111222' 
NOS,ioos:station:wmo:bzst2:1,2017-06-01T16:48:00Z,26.0670,-97.1550,15.0,5.9,147.0,6.8,'11111222,11111222,11111222' 
NOS,ioos:station:wmo:bzst2:1,2017-06-01T16:54:00Z,26.0670,-97.1550,15.0,6.1,144.0,6.6,'11111222,11111222,11111222' 
NOS,ioos:station:wmo:bzst2:1,2017-06-01T17:00:00Z,26.0670,-97.1550,15.0,5.8,150.0,6.9,'11111222,11111222,11111222' 
NOS,ioos:station:wmo:bzst2:1,2017-06-01T17:06:00Z,26.0670,-97.1550,15.0,5.7,141.0,6.7,'11111222,11111222,11111222' 
NOS,ioos:station:wmo:bzst2:1,2017-06-01T17:12:00Z,26.0670,-97.1550,15.0,5.1,148.0,6.4,'11111222,11111222,11111222' 
NOS,ioos:station:wmo:bzst2:1,2017-06-01T17:18:00Z,26.0670,-97.1550,15.0,5.8,147.0,6.8,'11111222,11111222,11111222' 
NOS,ioos:station:wmo:bzst2:1,2017-06-01T17:24:00Z,26.0670,-97.1550,15.0,5.9,142.0,6.8,'11111222,11111222,11111222' 
NOS,ioos:station:wmo:bzst2:1,2017-06-01T17:30:00Z,26.0670,-97.1550,15.0,5.8,142.0,6.8,'11111222,11111222,11111222' 
NOS,ioos:station:wmo:bzst2:1,2017-06-01T17:36:00Z,26.0670,-97.1550,15.0,6.2,140.0,6.7,'11111222,11111222,11111222' 
NOS,ioos:station:wmo:bzst2:1,2017-06-01T17:42:00Z,26.0670,-97.1550,15.0,5.8,135.0,6.5,'11111222,11111222,11111222' 
NOS,ioos:station:wmo:bzst2:1,2017-06-01T17:48:00Z,26.0670,-97.1550,15.0,5.7,135.0,6.4,'11111222,11111222,11111222' 
NOS,ioos:station:wmo:bzst2:1,2017-06-01T17:54:00Z,26.0670,-97.1550,15.0,6.0,139.0,6.7,'11111222,11111222,11111222' 
NOS,ioos:station:wmo:bzst2:1,2017-06-01T18:00:00Z,26.0670,-97.1550,15.0,5.9,137.0,6.7,'11111222,11111222,11111222' 
NOS,ioos:station:wmo:bzst2:1,2017-06-01T18:06:00Z,26.0670,-97.1550,15.0,5.8,144.0,6.5,'11111222,11111222,11111222' 
NOS,ioos:station:wmo:bzst2:1,2017-06-01T18:12:00Z,26.0670,-97.1550,15.0,5.3,140.0,6.4,'11111222,11111222,11111222' 
NOS,ioos:station:wmo:bzst2:1,2017-06-01T18:18:00Z,26.0670,-97.1550,15.0,5.7,142.0,6.4,'11111222,11111222,11111222' 
NOS,ioos:station:wmo:bzst2:1,2017-06-01T18:24:00Z,26.0670,-97.1550,15.0,6.1,138.0,6.8,'11111222,11111222,11111222' 
NOS,ioos:station:wmo:bzst2:1,2017-06-01T18:30:00Z,26.0670,-97.1550,15.0,5.8,137.0,6.7,'11111222,11111222,11111222' 
NOS,ioos:station:wmo:bzst2:1,2017-06-01T18:36:00Z,26.0670,-97.1550,15.0,6.1,143.0,6.6,'11111222,11111222,11111222' 
NOS,ioos:station:wmo:bzst2:1,2017-06-01T18:42:00Z,26.0670,-97.1550,15.0,5.5,135.0,6.3,'11111222,11111222,11111222' 
NOS,ioos:station:wmo:bzst2:1,2017-06-01T18:48:00Z,26.0670,-97.1550,15.0,5.4,141.0,6.2,'11111222,11111222,11111222' 
NOS,ioos:station:wmo:bzst2:1,2017-06-01T18:54:00Z,26.0670,-97.1550,15.0,5.5,135.0,6.1,'11111222,11111222,11111222' 
NOS,ioos:station:wmo:bzst2:1,2017-06-01T19:00:00Z,26.0670,-97.1550,15.0,5.6,140.0,6.4,'11111222,11111222,11111222' 
NOS,ioos:station:wmo:bzst2:1,2017-06-01T19:06:00Z,26.0670,-97.1550,15.0,5.4,136.0,6.2,'11111222,11111222,11111222' 
NOS,ioos:station:wmo:bzst2:1,2017-06-01T19:12:00Z,26.0670,-97.1550,15.0,5.4,142.0,6.2,'11111222,11111222,11111222' 
NOS,ioos:station:wmo:bzst2:1,2017-06-01T19:18:00Z,26.0670,-97.1550,15.0,4.2,119.0,6.2,'11111222,11111222,11111222' 
NOS,ioos:station:wmo:bzst2:1,2017-06-01T19:24:00Z,26.0670,-97.1550,15.0,5.5,129.0,6.3,'11111222,11111222,11111222' 
NOS,ioos:station:wmo:bzst2:1,2017-06-01T19:30:00Z,26.0670,-97.1550,15.0,5.6,138.0,6.2,'11111222,11111222,11111222' 
NOS,ioos:station:wmo:bzst2:1,2017-06-01T19:36:00Z,26.0670,-97.1550,15.0,5.7,131.0,6.3,'11111222,11111222,11111222' 
NOS,ioos:station:wmo:bzst2:1,2017-06-01T19:42:00Z,26.0670,-97.1550,15.0,5.6,136.0,6.1,'11111222,11111222,11111222' 
NOS,ioos:station:wmo:bzst2:1,2017-06-01T19:48:00Z,26.0670,-97.1550,15.0,6.0,131.0,6.4,'11111222,11111222,11111222' 
NOS,ioos:station:wmo:bzst2:1,2017-06-01T19:54:00Z,26.0670,-97.1550,15.0,6.6,125.0,7.0,'11111222,11111222,11111222' 
NOS,ioos:station:wmo:bzst2:1,2017-06-01T20:00:00Z,26.0670,-97.1550,15.0,7.1,129.0,7.7,'11111222,11111222,11111222' 
NOS,ioos:station:wmo:bzst2:1,2017-06-01T20:06:00Z,26.0670,-97.1550,15.0,6.7,132.0,7.8,'11111222,11111222,11111222' 
NOS,ioos:station:wmo:bzst2:1,2017-06-01T20:12:00Z,26.0670,-97.1550,15.0,7.3,129.0,8.3,'11111222,11111222,11111222' 
NOS,ioos:station:wmo:bzst2:1,2017-06-01T20:18:00Z,26.0670,-97.1550,15.0,6.9,125.0,8.4,'11111222,11111222,11111222' 
NOS,ioos:station:wmo:bzst2:1,2017-06-01T20:24:00Z,26.0670,-97.1550,15.0,7.0,129.0,7.5,'11111222,11111222,11111222' 